timestamp,surface_pressure_avg,surface_temp_avg,battery_voltage,lat,long
2018-04-27 00:00:00+00:00,264.2381,5.59,13.05,47.84626,-54.09684
2018-04-27 00:10:00+00:00,258.5697,5.6,13.05,47.84626,-54.09684
2018-04-27 00:20:00+00:00,248.0847,5.64,13.05,47.84626,-54.09684
2018-04-27 00:30:00+00:00,238.5414,5.7,13.05,47.84626,-54.09684
2018-04-27 00:40:00+00:00,237.8148,5.7,13.13,47.84626,-54.09684
2018-04-27 00:50:00+00:00,234.3914,5.7,13.13,47.84626,-54.09684
2018-04-27 01:00:00+00:00,226.5864,5.7,13.05,47.84626,-54.09684
2018-04-27 01:10:00+00:00,222.9148,5.7,12.97,47.84626,-54.09684
2018-04-27 01:20:00+00:00,220.5831,5.7,13.05,47.84626,-54.09684
2018-04-27 01:30:00+00:00,211.3148,5.7,13.05,47.84626,-54.09684
2018-04-27 01:40:00+00:00,203.5181,5.7,13.05,47.84626,-54.09684
2018-04-27 01:50:00+00:00,204.2448,5.7,13.05,47.84626,-54.09684
2018-04-27 02:00:00+00:00,203.5748,5.7,13.05,47.84626,-54.09684
2018-04-27 02:10:00+00:00,196.5781,5.7,12.97,47.84626,-54.09684
2018-04-27 02:20:00+00:00,194.0581,5.79,13.05,47.84626,-54.09684
2018-04-27 02:30:00+00:00,197.3431,5.8,13.05,47.84626,-54.09684
2018-04-27 02:40:00+00:00,194.9765,5.8,13.05,47.84626,-54.09684
2018-04-27 02:50:00+00:00,191.6231,5.8,13.05,47.84626,-54.09684
2018-04-27 03:00:00+00:00,192.0831,5.8,13.05,47.84626,-54.09684
2018-04-27 03:10:00+00:00,192.0948,5.8,12.97,47.84626,-54.09684
2018-04-27 03:20:00+00:00,190.8264,5.8,13.05,47.84626,-54.09684
2018-04-27 03:30:00+00:00,188.8881,5.8,13.05,47.84626,-54.09684
2018-04-27 03:40:00+00:00,188.7014,5.81,13.05,47.84626,-54.09684
2018-04-27 03:50:00+00:00,189.4398,5.88,13.05,47.84626,-54.09684
2018-04-27 04:00:00+00:00,190.2165,5.9,12.97,47.84626,-54.09684
2018-04-27 04:10:00+00:00,191.9565,5.9,12.97,47.84626,-54.09684
2018-04-27 04:20:00+00:00,195.3731,5.9,13.05,47.84626,-54.09684
2018-04-27 04:30:00+00:00,197.3048,5.9,13.05,47.84626,-54.09684
2018-04-27 04:40:00+00:00,197.6148,5.9,13.05,47.84626,-54.09684
2018-04-27 04:50:00+00:00,199.7631,5.89,13.05,47.84626,-54.09684
2018-04-27 05:00:00+00:00,203.4048,5.89,12.97,47.84626,-54.09684
2018-04-27 05:10:00+00:00,206.9181,5.9,12.97,47.84626,-54.09684
2018-04-27 05:20:00+00:00,212.0715,5.9,12.97,47.84626,-54.09684
2018-04-27 05:30:00+00:00,215.5448,5.9,13.05,47.84626,-54.09684
2018-04-27 05:40:00+00:00,217.6715,5.9,13.05,47.84626,-54.09684
2018-04-27 05:50:00+00:00,221.7548,5.89,13.05,47.84626,-54.09684
2018-04-27 06:00:00+00:00,225.5598,5.71,12.97,47.84626,-54.09684
2018-04-27 06:10:00+00:00,229.1365,5.6,12.97,47.84626,-54.09684
2018-04-27 06:20:00+00:00,235.4981,5.52,12.97,47.84626,-54.09684
2018-04-27 06:30:00+00:00,241.0998,5.58,12.97,47.84626,-54.09684
2018-04-27 06:40:00+00:00,247.3281,5.6,13.05,47.84626,-54.09684
2018-04-27 06:50:00+00:00,257.3714,5.55,13.05,47.84626,-54.09684
2018-04-27 07:00:00+00:00,269.078,5.64,12.97,47.84626,-54.09684
2018-04-27 07:10:00+00:00,273.8647,5.7,12.97,47.84626,-54.09684
2018-04-27 07:20:00+00:00,280.3047,5.33,12.97,47.84626,-54.09684
2018-04-27 07:30:00+00:00,290.6381,4.34,12.97,47.84626,-54.09684
2018-04-27 07:40:00+00:00,300.2964,4.58,13.05,47.84626,-54.09684
2018-04-27 07:50:00+00:00,304.7764,4.69,13.05,47.84626,-54.09684
2018-04-27 08:00:00+00:00,313.4396,4.1,12.97,47.84626,-54.09684
2018-04-27 08:10:00+00:00,320.053,4.0,12.89,47.84626,-54.09684
2018-04-27 08:20:00+00:00,322.3063,4.03,12.97,47.84626,-54.09684
2018-04-27 08:30:00+00:00,326.9146,3.81,12.97,47.84626,-54.09684
2018-04-27 08:40:00+00:00,335.7697,3.9,13.05,47.84626,-54.09684
2018-04-27 08:50:00+00:00,340.0529,3.9,13.05,47.84626,-54.09684
2018-04-27 09:00:00+00:00,340.6863,3.9,12.97,47.84626,-54.09684
2018-04-27 09:10:00+00:00,343.6246,3.9,12.89,47.84626,-54.09684
2018-04-27 09:20:00+00:00,346.2046,3.82,12.97,47.84626,-54.09684
2018-04-27 09:30:00+00:00,347.243,4.03,12.97,47.84626,-54.09684
2018-04-27 09:40:00+00:00,349.503,4.1,13.05,47.84626,-54.09684
2018-04-27 09:50:00+00:00,353.868,4.12,13.05,47.84626,-54.09684
2018-04-27 10:00:00+00:00,351.5696,4.1,12.97,47.84626,-54.09684
2018-04-27 10:10:00+00:00,350.0246,4.1,12.89,47.84626,-54.09684
2018-04-27 10:20:00+00:00,348.2513,4.17,12.97,47.84626,-54.09684
2018-04-27 10:30:00+00:00,347.2429,4.24,12.97,47.84626,-54.09684
2018-04-27 10:40:00+00:00,343.1479,4.53,12.97,47.84626,-54.09684
2018-04-27 10:50:00+00:00,342.8997,5.21,13.05,47.84626,-54.09684
2018-04-27 11:00:00+00:00,341.068,5.36,12.97,47.84626,-54.09684
2018-04-27 11:10:00+00:00,335.7629,5.42,12.89,47.84626,-54.09684
2018-04-27 11:20:00+00:00,334.4779,5.4,12.97,47.84626,-54.09684
2018-04-27 11:30:00+00:00,331.2329,5.3,12.97,47.84626,-54.09684
2018-04-27 11:40:00+00:00,321.0247,5.3,13.05,47.84626,-54.09684
2018-04-27 11:50:00+00:00,315.5046,4.86,13.05,47.84626,-54.09684
2018-04-27 12:00:00+00:00,310.8914,4.65,12.97,47.84626,-54.09684
2018-04-27 12:10:00+00:00,302.2496,4.85,12.97,47.84626,-54.09684
2018-04-27 12:20:00+00:00,288.8947,4.77,13.05,47.84626,-54.09684
2018-04-27 12:30:00+00:00,277.6297,4.81,13.05,47.84626,-54.09684
2018-04-27 12:40:00+00:00,270.5714,5.0,13.05,47.84626,-54.09684
2018-04-27 12:50:00+00:00,261.688,5.1,13.13,47.84626,-54.09684
2018-04-27 13:00:00+00:00,249.6064,5.21,13.13,47.84626,-54.09684
2018-04-27 13:10:00+00:00,242.0997,5.26,13.05,47.84626,-54.09684
2018-04-27 13:20:00+00:00,236.2314,5.2,13.13,47.84626,-54.09684
2018-04-27 13:30:00+00:00,227.3481,5.0,13.21,47.84626,-54.09684
2018-04-27 13:40:00+00:00,218.6664,5.0,13.29,47.84626,-54.09684
2018-04-27 13:50:00+00:00,209.7631,5.0,13.29,47.84626,-54.09684
2018-04-27 14:00:00+00:00,201.5148,5.0,13.29,47.84626,-54.09684
2018-04-27 14:10:00+00:00,195.9031,4.98,13.29,47.84626,-54.09684
2018-04-27 14:20:00+00:00,190.6831,4.94,13.37,47.84626,-54.09684
2018-04-27 14:30:00+00:00,189.4248,4.9,13.44,47.84626,-54.09684
2018-04-27 14:40:00+00:00,187.5998,5.11,13.53,47.84626,-54.09684
2018-04-27 14:50:00+00:00,181.8748,5.27,13.6,47.84626,-54.09684
2018-04-27 15:00:00+00:00,179.1648,5.21,13.6,47.84626,-54.09684
2018-04-27 15:10:00+00:00,179.4281,5.25,13.53,47.84626,-54.09684
2018-04-27 15:20:00+00:00,179.0065,5.29,13.68,47.84626,-54.09684
2018-04-27 15:30:00+00:00,176.3398,5.3,13.68,47.84626,-54.09684
2018-04-27 15:40:00+00:00,175.1465,5.3,13.76,47.84626,-54.09684
2018-04-27 15:50:00+00:00,177.3815,5.3,13.84,47.84626,-54.09684
2018-04-27 16:00:00+00:00,176.8098,5.3,13.84,47.84626,-54.09684
2018-04-27 16:10:00+00:00,175.4565,5.3,13.84,47.84626,-54.09684
2018-04-27 16:20:00+00:00,176.0348,5.36,14.16,47.84626,-54.09684
2018-04-27 16:30:00+00:00,177.6398,5.4,14.32,47.84626,-54.09684
2018-04-27 16:40:00+00:00,180.5498,5.49,14.56,47.84626,-54.09684
2018-04-27 16:50:00+00:00,181.0081,5.54,14.48,47.84626,-54.09684
2018-04-27 17:00:00+00:00,183.2531,5.5,14.24,47.84626,-54.09684
2018-04-27 17:10:00+00:00,188.9281,5.5,14.24,47.84626,-54.09684
2018-04-27 17:20:00+00:00,191.8765,5.5,14.96,47.84626,-54.09684
2018-04-27 17:30:00+00:00,193.8614,5.5,14.48,47.84626,-54.09684
2018-04-27 17:40:00+00:00,196.4081,5.5,14.48,47.84626,-54.09684
2018-04-27 17:50:00+00:00,201.0481,5.5,14.72,47.84626,-54.09684
2018-04-27 18:00:00+00:00,207.0964,5.5,14.32,47.84626,-54.09684
2018-04-27 18:10:00+00:00,210.3647,5.5,14.16,47.84626,-54.09684
2018-04-27 18:20:00+00:00,211.6147,5.52,14.32,47.84626,-54.09684
2018-04-27 18:30:00+00:00,219.2231,5.5,14.24,47.84626,-54.09684
2018-04-27 18:40:00+00:00,231.5697,5.49,14.32,47.84626,-54.09684
2018-04-27 18:50:00+00:00,235.4064,5.42,14.24,47.84626,-54.09684
2018-04-27 19:00:00+00:00,237.9498,5.48,14.08,47.84626,-54.09684
2018-04-27 19:10:00+00:00,247.5964,5.48,13.92,47.84626,-54.09684
2018-04-27 19:20:00+00:00,255.5331,5.49,13.92,47.84626,-54.09684
2018-04-27 19:30:00+00:00,259.2298,5.53,13.92,47.84626,-54.09684
2018-04-27 19:40:00+00:00,267.6864,5.6,13.92,47.84626,-54.09684
2018-04-27 19:50:00+00:00,279.3597,5.5,14.0,47.84626,-54.09684
2018-04-27 20:00:00+00:00,285.3547,5.4,13.84,47.84626,-54.09684
2018-04-27 20:10:00+00:00,289.753,5.4,13.76,47.84626,-54.09684
2018-04-27 20:20:00+00:00,297.8113,5.4,13.92,47.84626,-54.09684
2018-04-27 20:30:00+00:00,304.5013,5.3,13.92,47.84626,-54.09684
2018-04-27 20:40:00+00:00,307.6331,5.3,13.84,47.84626,-54.09684
2018-04-27 20:50:00+00:00,313.973,5.21,13.84,47.84626,-54.09684
2018-04-27 21:00:00+00:00,321.4496,5.2,13.68,47.84626,-54.09684
2018-04-27 21:10:00+00:00,327.6546,5.26,13.53,47.84626,-54.09684
2018-04-27 21:20:00+00:00,327.8312,5.37,13.53,47.84626,-54.09684
2018-04-27 21:30:00+00:00,327.7713,5.42,13.53,47.84626,-54.09684
2018-04-27 21:40:00+00:00,330.163,5.5,13.44,47.84626,-54.09684
2018-04-27 21:50:00+00:00,335.9046,5.4,13.44,47.84626,-54.09684
2018-04-27 22:00:00+00:00,339.2046,5.5,13.37,47.84626,-54.09684
2018-04-27 22:10:00+00:00,336.2447,5.56,13.21,47.84626,-54.09684
2018-04-27 22:20:00+00:00,337.0547,5.59,13.21,47.84626,-54.09684
2018-04-27 22:30:00+00:00,338.618,5.6,13.21,47.84626,-54.09684
2018-04-27 22:40:00+00:00,335.8947,5.62,13.21,47.84626,-54.09684
2018-04-27 22:50:00+00:00,331.848,5.7,13.21,47.84626,-54.09684
2018-04-27 23:00:00+00:00,332.7446,5.7,13.13,47.84626,-54.09684
2018-04-27 23:10:00+00:00,329.7997,5.6,13.05,47.84626,-54.09684
2018-04-27 23:20:00+00:00,320.1463,5.68,13.13,47.84626,-54.09684
2018-04-27 23:30:00+00:00,316.653,5.7,13.13,47.84626,-54.09684
2018-04-27 23:40:00+00:00,317.7047,5.7,13.13,47.84626,-54.09684
2018-04-27 23:50:00+00:00,312.1562,5.73,13.13,47.84626,-54.09684
